• In Deutschland
  • Länderverzeichnis
  • Für 7 Tage
  • Wassertemperatur
  • Satellitenkarten
  • Wetterkarte
  • Widgets
  • user-avatar
    Anmelden

    Stündliche Wetter Oran

    Heute, 16 August, Mittwoch

    Zeit Temperatur Niederschläge Wind Luftdruck Luftfeuchtigkeit
    00:00 +29°C° 0 mm 2 m/S 753 mmHg 76%
    01:00 +29°C° 0 mm 2 m/S 753 mmHg 77%
    02:00 +28°C° 0 mm 2 m/S 753 mmHg 78%
    03:00 +28°C° 0 mm 2 m/S 753 mmHg 79%
    04:00 +28°C° 0 mm 2 m/S 753 mmHg 80%
    05:00 +28°C° 0 mm 2 m/S 753 mmHg 80%
    06:00 +27°C° 0 mm 1 m/S 753 mmHg 81%
    07:00 +28°C° 0 mm 1 m/S 754 mmHg 75%
    08:00 +29°C° 0 mm 1 m/S 754 mmHg 68%
    09:00 +30°C° 0 mm 1 m/S 754 mmHg 62%
    10:00 +32°C° 0 mm 2 m/S 754 mmHg 56%
    11:00 +34°C° 0 mm 2 m/S 754 mmHg 51%
    12:00 +35°C° 0 mm 3 m/S 754 mmHg 45%
    13:00 +36°C° 0 mm 3 m/S 753 mmHg 44%
    14:00 +36°C° 0 mm 3 m/S 753 mmHg 44%
    15:00 +36°C° 0 mm 3 m/S 753 mmHg 44%
    16:00 +36°C° 0 mm 3 m/S 752 mmHg 47%
    17:00 +35°C° 0 mm 3 m/S 752 mmHg 50%
    18:00 +34°C° 0 mm 3 m/S 752 mmHg 52%
    19:00 +33°C° 0 mm 3 m/S 753 mmHg 56%
    20:00 +33°C° 0 mm 3 m/S 753 mmHg 60%
    21:00 +31°C° 0 mm 2 m/S 753 mmHg 63%
    22:00 +30°C° 0 mm 2 m/S 753 mmHg 64%
    23:00 +30°C° 0 mm 2 m/S 753 mmHg 66%

    Morgen, 17 August, Donnerstag

    Zeit Temperatur Niederschläge Wind Luftdruck Luftfeuchtigkeit
    00:00 +30°C° 0 mm 2 m/S 753 mmHg 67%
    01:00 +29°C° 0 mm 2 m/S 753 mmHg 69%
    02:00 +29°C° 0 mm 2 m/S 753 mmHg 72%
    03:00 +28°C° 0 mm 2 m/S 753 mmHg 74%
    04:00 +28°C° 0 mm 2 m/S 753 mmHg 75%
    05:00 +28°C° 0 mm 2 m/S 753 mmHg 76%
    06:00 +28°C° 0 mm 2 m/S 753 mmHg 77%
    07:00 +29°C° 0 mm 2 m/S 753 mmHg 70%
    08:00 +30°C° 0 mm 2 m/S 753 mmHg 62%
    09:00 +33°C° 0 mm 3 m/S 754 mmHg 55%
    10:00 +34°C° 0 mm 3 m/S 753 mmHg 49%
    11:00 +36°C° 0 mm 4 m/S 753 mmHg 43%
    12:00 +37°C° 0 mm 4 m/S 753 mmHg 38%
    13:00 +37°C° 0 mm 4 m/S 753 mmHg 37%
    14:00 +37°C° 0 mm 5 m/S 752 mmHg 37%
    15:00 +39°C° 0 mm 5 m/S 752 mmHg 37%
    16:00 +37°C° 0 mm 5 m/S 752 mmHg 39%
    17:00 +36°C° 0 mm 5 m/S 752 mmHg 42%
    18:00 +35°C° 0 mm 5 m/S 752 mmHg 45%
    19:00 +34°C° 0 mm 4 m/S 752 mmHg 49%
    20:00 +33°C° 0 mm 4 m/S 752 mmHg 52%
    21:00 +31°C° 0 mm 3 m/S 752 mmHg 56%
    22:00 +31°C° 0 mm 3 m/S 752 mmHg 58%
    23:00 +31°C° 0 mm 2 m/S 752 mmHg 59%

    übermorgen, 18 August, Freitag

    Zeit Temperatur Niederschläge Wind Luftdruck Luftfeuchtigkeit
    00:00 +30°C° 0 mm 2 m/S 752 mmHg 61%
    01:00 +30°C° 0 mm 2 m/S 752 mmHg 64%
    02:00 +29°C° 0 mm 2 m/S 752 mmHg 67%
    03:00 +28°C° 0 mm 2 m/S 752 mmHg 70%
    04:00 +28°C° 0 mm 2 m/S 751 mmHg 72%
    05:00 +28°C° 0 mm 2 m/S 751 mmHg 73%
    06:00 +28°C° 0 mm 2 m/S 751 mmHg 75%
    07:00 +29°C° 0 mm 2 m/S 752 mmHg 67%
    08:00 +30°C° 0 mm 2 m/S 752 mmHg 59%
    09:00 +32°C° 0 mm 1 m/S 752 mmHg 51%
    10:00 +34°C° 0 mm 2 m/S 752 mmHg 45%
    11:00 +36°C° 0 mm 3 m/S 752 mmHg 39%
    12:00 +38°C° 0 mm 3 m/S 751 mmHg 33%
    13:00 +38°C° 0 mm 4 m/S 751 mmHg 34%
    14:00 +38°C° 0 mm 4 m/S 751 mmHg 34%
    15:00 +39°C° 0 mm 5 m/S 750 mmHg 35%
    16:00 +37°C° 0 mm 4 m/S 750 mmHg 37%
    17:00 +36°C° 0 mm 4 m/S 750 mmHg 39%
    18:00 +35°C° 0 mm 3 m/S 750 mmHg 41%
    19:00 +35°C° 0 mm 3 m/S 751 mmHg 44%
    20:00 +34°C° 0 mm 3 m/S 751 mmHg 46%
    21:00 +32°C° 0 mm 2 m/S 751 mmHg 48%
    22:00 +32°C° 0 mm 2 m/S 751 mmHg 50%
    23:00 +31°C° 0 mm 1 m/S 751 mmHg 53%

    19 August, Samstag

    Zeit Temperatur Niederschläge Wind Luftdruck Luftfeuchtigkeit
    00:00 +31°C° 0 mm 1 m/S 751 mmHg 55%
    01:00 +30°C° 0 mm 1 m/S 751 mmHg 57%
    02:00 +29°C° 0 mm 2 m/S 751 mmHg 59%
    03:00 +29°C° 0 mm 2 m/S 751 mmHg 60%
    04:00 +29°C° 0 mm 2 m/S 751 mmHg 63%
    05:00 +28°C° 0 mm 2 m/S 751 mmHg 65%
    06:00 +28°C° 0 mm 2 m/S 751 mmHg 67%
    07:00 +30°C° 0 mm 3 m/S 751 mmHg 59%
    08:00 +31°C° 0 mm 3 m/S 752 mmHg 51%
    09:00 +34°C° 0 mm 3 m/S 752 mmHg 43%
    10:00 +36°C° 0 mm 3 m/S 752 mmHg 37%
    11:00 +37°C° 0 mm 4 m/S 752 mmHg 32%
    12:00 +40°C° 0 mm 4 m/S 752 mmHg 27%
    13:00 +40°C° 0 mm 5 m/S 751 mmHg 30%
    14:00 +39°C° 0 mm 6 m/S 751 mmHg 33%
    15:00 +39°C° 0 mm 7 m/S 751 mmHg 36%
    16:00 +38°C° 0 mm 7 m/S 751 mmHg 38%
    17:00 +36°C° 0 mm 7 m/S 751 mmHg 40%
    18:00 +35°C° 0 mm 7 m/S 751 mmHg 42%
    19:00 +34°C° 0 mm 7 m/S 752 mmHg 46%
    20:00 +33°C° 0 mm 7 m/S 752 mmHg 50%
    21:00 +32°C° 0 mm 7 m/S 753 mmHg 55%
    22:00 +32°C° 0 mm 6 m/S 752 mmHg 57%
    23:00 +30°C° 0 mm 6 m/S 752 mmHg 60%

    20 August, Sonntag

    Zeit Temperatur Niederschläge Wind Luftdruck Luftfeuchtigkeit
    00:00 +30°C° 0 mm 5 m/S 752 mmHg 63%
    01:00 +29°C° 0 mm 5 m/S 752 mmHg 66%
    02:00 +29°C° 0 mm 5 m/S 752 mmHg 69%
    03:00 +28°C° 0 mm 5 m/S 752 mmHg 72%
    04:00 +28°C° 0 mm 5 m/S 752 mmHg 74%
    05:00 +28°C° 0 mm 5 m/S 753 mmHg 76%
    06:00 +28°C° 0 mm 4 m/S 753 mmHg 78%
    07:00 +29°C° 0 mm 5 m/S 753 mmHg 71%
    08:00 +30°C° 0 mm 5 m/S 753 mmHg 65%
    09:00 +32°C° 0 mm 5 m/S 753 mmHg 58%
    10:00 +34°C° 0 mm 5 m/S 753 mmHg 52%
    11:00 +35°C° 0 mm 6 m/S 753 mmHg 47%
    12:00 +38°C° 0 mm 6 m/S 753 mmHg 41%
    13:00 +38°C° 0 mm 6 m/S 753 mmHg 41%
    14:00 +38°C° 0 mm 7 m/S 752 mmHg 40%
    15:00 +39°C° 0 mm 7 m/S 752 mmHg 40%
    16:00 +38°C° 0 mm 7 m/S 752 mmHg 42%
    17:00 +36°C° 0 mm 7 m/S 752 mmHg 45%
    18:00 +35°C° 0 mm 7 m/S 752 mmHg 48%
    19:00 +34°C° 0 mm 6 m/S 752 mmHg 51%
    20:00 +33°C° 0 mm 6 m/S 753 mmHg 54%
    21:00 +32°C° 0 mm 5 m/S 753 mmHg 58%
    22:00 +30°C° 0 mm 5 m/S 753 mmHg 60%
    23:00 +30°C° 0 mm 5 m/S 753 mmHg 62%

    21 August, Montag

    Zeit Temperatur Niederschläge Wind Luftdruck Luftfeuchtigkeit
    00:00 +29°C° 0 mm 4 m/S 753 mmHg 64%
    01:00 +29°C° 0 mm 4 m/S 753 mmHg 67%
    02:00 +28°C° 0 mm 4 m/S 753 mmHg 69%
    03:00 +28°C° 0 mm 4 m/S 752 mmHg 72%
    04:00 +28°C° 0 mm 4 m/S 753 mmHg 73%
    05:00 +27°C° 0 mm 4 m/S 753 mmHg 75%
    06:00 +27°C° 0 mm 4 m/S 753 mmHg 76%
    07:00 +28°C° 0 mm 4 m/S 753 mmHg 70%
    08:00 +29°C° 0 mm 4 m/S 753 mmHg 63%
    09:00 +30°C° 0 mm 4 m/S 753 mmHg 57%
    10:00 +33°C° 0 mm 4 m/S 753 mmHg 52%
    11:00 +34°C° 0 mm 5 m/S 753 mmHg 46%
    12:00 +36°C° 0 mm 5 m/S 753 mmHg 40%
    13:00 +36°C° 0 mm 6 m/S 752 mmHg 39%
    14:00 +36°C° 0 mm 6 m/S 752 mmHg 38%
    15:00 +38°C° 0 mm 7 m/S 752 mmHg 36%
    16:00 +36°C° 0 mm 6 m/S 752 mmHg 37%
    17:00 +35°C° 0 mm 6 m/S 752 mmHg 39%
    18:00 +34°C° 0 mm 6 m/S 752 mmHg 40%
    19:00 +33°C° 0 mm 5 m/S 752 mmHg 43%
    20:00 +33°C° 0 mm 5 m/S 753 mmHg 46%
    21:00 +32°C° 0 mm 4 m/S 753 mmHg 49%
    22:00 +30°C° 0 mm 4 m/S 753 mmHg 51%
    23:00 +30°C° 0 mm 4 m/S 753 mmHg 54%
    Mehr zeigen